Location: Newark
(7.0858°N, 171.3717°E)
Time: 20:59:45
(UTC+00:00)

Tiros 1 - Pass Details

Date: 02 December 2020
Orbit: 630 x 663 km, 48.4° (Epoch: 18 January)

Event Time Altitude Azimuth Distance (km) Brightness Sun altitude
Rises 22:33:59 0° 191° (S) 2,955 10.9 50.2°
Reaches altitude 10° 22:36:54 10° 173° (S) 2,051 10.4 50.7°
Maximum altitude 22:40:13 19° 128° (SE) 1,553 10.2 51.2°
Drops below altitude 10° 22:43:33 10° 83° (E) 2,062 10.2 51.8°
Sets 22:46:30 0° 65° (ENE) 2,977 10.7 52.2°
